Flag for U.S.A. Weather past 2 weeks in Moscow, Idaho, U.S.A.

Now
85 °F

Sunny.


Feels Like: 82 °F
Forecast: 47 / 85 °F
Wind: 5 mph from North

Location: Pullman / Moscow Regional Airport

Current Time: Jul 29, 2015 at 3:37:11 PM

Latest Report: Jul 29, 2015 at 2:53 PM


Visibility: 10 mi

Pressure: 30.16 "Hg (27.62 "Hg at 781m altitude)

Humidity: 17%

Dew point: 35 °F

Location of MoscowLocation

Historic Weather in Moscow — Graph

°F

Moscow temperature yesterday

Maximum temperature yesterday: 77 °F (at 3:53 PM)
Minimum temperature yesterday: 49 °F (at 3:53 AM)
Average temperature yesterday: 63 °F

Past Weeks' High & Low Weather Summary

 TemperatureHumidityPressure
High90 °F (Jul 19, 2:53 PM)83% (Jul 15, 3:53 AM)30.26 "Hg (Jul 15, 3:53 AM)
Low43 °F (Jul 17, 4:53 AM)11% (Jul 20, 6:53 PM)29.73 "Hg (Jul 21, 7:53 PM)
Average68 °F40%29.97 "Hg
* Reported Jul 14 1:53 PM — Jul 29 1:53 PM, Moscow, Weather by CustomWeather, © 2015

Note: Actual official high and low records may vary slightly from our data, if they occured in-between our weather recording intervals... More about our weather records

Advertising

Moscow weather history for previous 24 hours

 ConditionsComfort  
Time TempWeatherWind HumidityBarometerVisibility
1:53 PM
Wed, Jul 29
84 °FSunny.7 mph17%30.19 "Hg10 mi
12:53 PM83 °FSunny.No wind18%30.19 "Hg10 mi
11:53 AM80 °FSunny.5 mph20%30.20 "Hg10 mi
10:53 AM78 °FSunny.6 mph22%30.22 "Hg10 mi
9:53 AM75 °FSunny.9 mph30%30.22 "Hg10 mi
8:53 AM70 °FSunny.8 mph37%30.24 "Hg10 mi
7:53 AM67 °FSunny.10 mph41%30.22 "Hg10 mi
6:53 AM62 °FSunny.9 mph46%30.21 "Hg10 mi
5:53 AM57 °FClear.3 mph51%30.21 "Hg10 mi
4:53 AM57 °FClear.6 mph49%30.20 "Hg10 mi
3:53 AM57 °FClear.No wind47%30.19 "Hg10 mi
2:53 AM53 °FClear.3 mph52%30.20 "Hg10 mi
1:53 AM49 °FClear.No wind57%30.20 "Hg10 mi
12:53 AM51 °FClear.No wind52%30.21 "Hg10 mi
11:53 PM
Tue, Jul 28
55 °FClear.No wind47%30.20 "Hg10 mi
10:53 PM54 °FClear.No wind47%30.21 "Hg10 mi
9:53 PM60 °FClear.No wind39%30.20 "Hg10 mi
8:53 PM60 °FSunny.No wind39%30.19 "Hg10 mi
7:53 PM72 °FSunny.5 mph24%30.18 "Hg10 mi
6:53 PM76 °FSunny.No wind23%30.18 "Hg10 mi
5:53 PM76 °FSunny.5 mph22%30.19 "Hg10 mi
4:53 PM77 °FSunny.No wind20%30.19 "Hg10 mi
3:53 PM77 °FSunny.N/A22%30.21 "Hg10 mi
Weather by CustomWeather, © 2015

See weather overviewHow to use our weather pages